Location: Kitt Peak
(31.9639°N, 111.5992°W)
Time: 14:18:32
(UTC-07:00)

Envisat - Visible Passes

Search period start: 23 June 2018 00:00
Search period end: 03 July 2018 00:00
Orbit: 764 x 766 km, 98.2° (Epoch: 23 June)

Date Brightness Start Highest point End Pass type
(mag) Time Alt. Az. Time Alt. Az. Time Alt. Az.
24 Jun 5.4 20:51:18 10° SW 20:54:55 19° W 20:58:31 10° NW visible
25 Jun 4.0 20:13:09 10° S 20:18:01 47° W 20:22:55 10° NNW visible
27 Jun 5.1 20:39:33 10° SSW 20:43:41 25° W 20:47:51 10° NW visible
28 Jun 3.5 20:01:50 10° S 20:06:50 62° W 20:11:53 10° NNW visible
29 Jun 5.7 21:07:04 10° WSW 21:09:26 13° W 21:11:48 10° WNW visible
30 Jun 4.7 20:27:57 10° SSW 20:32:28 33° W 20:37:01 10° NW visible
02 Jul 5.5 20:54:52 10° SW 20:58:10 17° W 21:01:31 10° NW visible
